#timestamp,LO_Frequency,Hit,StdDev 
1608397215.6,286047000.0,N
1608397235.4,286047001.0,N
1608397255.3,286046998.4,N
1608397275.1,286047000.9,N
1608397276.0,286047000.9,N
1608397295.8,286047000.2,N
1608397315.7,286047000.2,N
1608397335.5,286047002.4,N
1608397355.3,286047002.5,N
1608397375.2,286047002.8,N
1608397395.9,286047000.0,N
1608397415.7,286046999.9,N
1608397435.6,286047000.4,N
1608397455.4,286047000.9,N
1608397475.2,286047002.3,N
1608397495.1,286047002.3,N
1608397496.0,286047002.3,N
1608397515.8,286047002.0,N
1608397535.6,286047000.1,N
1608397555.5,286047002.8,N
1608397575.3,286047002.8,N
1608397595.1,286046999.8,N
1608397615.9,286047002.3,N
1608397635.7,286047002.3,N
1608397655.5,286047002.2,N
1608397675.4,286047002.0,N
1608397695.2,286047001.8,N
1608397715.0,286046999.7,N
1608397715.9,286046999.7,N
1608397735.8,286047001.8,N
1608397755.6,286047003.9,Y
1608397775.4,286047000.1,P
1608397795.3,286047002.7,P
1608397815.1,286047002.3,N
1608397816.0,286047002.3,N
1608397835.8,286047000.1,N
1608397855.7,286047002.6,N
1608397875.5,286047002.2,N
1608397895.3,286047001.4,N
1608397915.2,286047004.4,Y
1608397935.9,286047002.7,P
1608397955.7,286047002.7,P
1608397975.6,286047000.2,N
1608397995.4,286047000.2,N
1608398015.2,286047002.6,N
1608398035.1,286047000.3,N
1608398036.0,286047000.3,N
1608398055.8,286046999.8,N
1608398075.6,286046999.9,N
1608398095.5,286047000.7,N
1608398115.3,286046999.9,N
1608398135.1,286047002.4,N
1608398155.9,286046999.7,N
1608398175.7,286047002.7,N
1608398195.5,286047002.4,N
1608398215.4,286046999.7,N
1608398235.2,286047002.7,N
1608398255.0,286046999.7,N
1608398255.9,286046999.7,N
1608398275.8,286047002.7,N
1608398295.6,286047002.3,N
1608398315.4,286046999.7,N
1608398335.3,286047000.2,N
1608398355.1,286046999.9,N
1608398356.0,286046999.9,N
1608398375.8,286047002.2,N
1608398395.7,286047002.2,N
1608398415.5,286047001.3,N
1608398435.3,286047002.5,N
1608398455.2,286047002.7,N
1608398475.9,286047002.6,N
1608398495.7,286047002.1,N
1608398515.6,286047002.0,N
1608398535.4,286047001.8,N
1608398555.2,286047004.0,Y
1608398575.1,286047002.8,P
1608398576.0,286047002.8,P
1608398595.8,286047002.6,P
1608398615.6,286046999.9,N
1608398635.5,286046999.8,N
1608398655.3,286047002.7,N
1608398675.1,286047002.8,N
1608398695.9,286046999.8,N
1608398715.7,286047000.5,N
1608398735.5,286047000.5,N
1608398755.4,286047000.5,N
1608398775.2,286047001.1,N
1608398795.0,286047000.3,N
1608398795.9,286047000.3,N
1608398815.8,286046999.9,N
1608398835.6,286047000.7,N
1608398855.4,286047000.4,N
1608398875.3,286047000.8,N
1608398895.1,286046998.6,N
1608398896.0,286046998.6,N
1608398915.8,286046998.8,N
1608398935.7,286046998.7,N
1608398955.5,286046998.1,N
1608398975.3,286047001.2,N
1608398995.2,286046998.1,N
1608399015.9,286046998.2,N
1608399035.7,286046998.6,N
1608399055.6,286046998.9,N
1608399075.4,286046998.7,N
1608399095.2,286046998.4,N
1608399115.1,286046998.6,N
1608399116.0,286046998.6,N
1608399135.8,286046998.7,N
1608399155.6,286046999.0,N
1608399175.5,286046997.7,N
1608399195.3,286046999.4,N
1608399215.1,286046998.9,N
1608399235.9,286046998.9,N
1608399255.7,286046998.7,N
1608399275.5,286046998.8,N
1608399295.4,286046999.0,N
1608399315.2,286046996.5,Y
1608399335.0,286046999.4,P
1608399335.9,286046999.4,P
1608399355.8,286046998.3,P
1608399375.6,286046998.1,Y
1608399395.4,286047001.0,P
1608399415.3,286047000.9,N
1608399435.1,286047000.6,N
1608399455.8,286047001.2,N
1608399475.7,286047000.0,N
1608399495.5,286047001.2,N
1608399515.3,286046998.3,N
1608399535.2,286046998.4,N
1608399555.9,286046998.1,N
1608399575.7,286047000.7,N
1608399595.6,286046998.1,N
1608399615.4,286047001.1,N
1608399635.2,286047000.0,N
1608399655.1,286047000.3,N
1608399656.0,286047000.3,N
1608399675.8,286046999.8,N
1608399695.6,286047000.2,N
1608399715.5,286047000.1,N
1608399735.3,286047000.4,N
1608399755.1,286047000.6,N
1608399775.9,286047001.0,N
1608399795.7,286046998.4,N
1608399815.5,286046999.5,N
1608399835.4,286046999.3,N
1608399855.2,286046998.9,N
1608399875.0,286046998.6,N
1608399875.9,286046998.6,N
1608399895.8,286046998.9,N
1608399915.6,286046996.7,Y
1608399935.4,286046999.2,P
1608399955.3,286046996.5,P
1608399975.1,286046996.6,N
1608399976.0,286046996.6,N
1608399995.8,286046999.6,N
1608400015.7,286046999.4,N
1608400035.5,286046996.5,N
1608400055.3,286046997.0,N
1608400075.2,286046997.1,N
1608400095.9,286046996.8,N
1608400115.7,286046997.7,N
1608400135.6,286046997.1,N
1608400155.4,286046997.8,N
1608400175.2,286046997.9,N
1608400195.1,286046997.6,N
1608400196.0,286046997.6,N
1608400215.8,286046997.8,N
1608400235.6,286046997.8,N
1608400255.5,286046996.7,Y
1608400275.3,286046998.2,P
1608400295.1,286047000.0,N
1608400315.9,286047002.7,N
1608400335.7,286046998.4,N
1608400355.5,286046998.8,N
1608400375.4,286046998.8,N
1608400395.2,286046998.7,N
1608400415.0,286046998.4,N
1608400415.9,286046998.4,N
1608400435.8,286047000.7,N
1608400455.6,286046998.3,N
1608400475.4,286046998.8,N
1608400495.3,286047001.1,N
1608400515.1,286046998.2,N
1608400535.8,286047001.0,N
1608400555.7,286046998.6,N
1608400575.5,286046999.1,N
1608400595.3,286046996.8,N
1608400615.2,286046997.1,N
1608400635.9,286046997.2,N
1608400655.7,286047000.8,N
1608400675.6,286046998.2,N
1608400695.4,286046999.3,N
1608400715.2,286046999.1,N
1608400735.1,286046999.2,N
1608400736.0,286046999.2,N
1608400755.8,286046997.0,N
1608400775.6,286046997.1,N
1608400795.5,286046998.0,N
